RYR6137 LEPA-EDHL

Flight info

Callsign RYR6137
Flight time N/A
Altitude 36000
Route MEROS N853 LUMAS DCT MAXIR DCT LUSOL DCT BODRU DCT OKTET DCT IRMAR DCT KINES DCT VANAS DCT MOBLO DCT UBIMA DCT SOSAL DCT KORED DCT BERSU DCT DITON/N0446F370 DCT LOKTA DCT TEDGO DCT HAREM DCT LOHRE DCT ELNAT/N0447F380 P605 NOLGO NOLGO2V
Aircraft A320/M-SDE3FGHIRWY/LB1

Departure

Time 2026-05-06 15:53
Airport Palma de Mallorca Airport (LEPA)

Arrival

Time N/A
Airport Lübeck Blankensee Airport (EDHL)
Time Latitude Longitude Altitude Speed Heading
2026-05-06 15:18 39.55066 2.73579 35 ft 0 kts 163°
2026-05-06 15:41 39.55083 2.73574 36 ft 4 kts 172°
2026-05-06 15:41 39.55108 2.73568 37 ft 2 kts 164°
2026-05-06 15:42 39.55130 2.73556 36 ft 4 kts 135°
2026-05-06 15:42 39.55141 2.73529 37 ft 4 kts 84°
2026-05-06 15:42 39.55133 2.73497 38 ft 3 kts 59°
2026-05-06 15:42 39.55119 2.73468 36 ft 4 kts 59°
2026-05-06 15:43 39.55116 2.73462 37 ft 0 kts 59°
2026-05-06 15:44 39.55118 2.73467 36 ft 2 kts 59°
2026-05-06 15:45 39.55132 2.73496 38 ft 5 kts 59°
2026-05-06 15:45 39.55155 2.73547 38 ft 8 kts 59°
2026-05-06 15:45 39.55183 2.73618 38 ft 10 kts 84°
2026-05-06 15:45 39.55176 2.73706 38 ft 10 kts 78°
2026-05-06 15:46 39.55167 2.73787 38 ft 10 kts 87°
2026-05-06 15:46 39.55151 2.73873 38 ft 11 kts 136°
2026-05-06 15:46 39.55078 2.73930 38 ft 13 kts 149°
2026-05-06 15:46 39.54991 2.73996 37 ft 16 kts 149°
2026-05-06 15:47 39.54893 2.74072 38 ft 18 kts 149°
2026-05-06 15:47 39.54796 2.74123 38 ft 12 kts 199°
2026-05-06 15:47 39.54743 2.74029 36 ft 14 kts 238°
2026-05-06 15:47 39.54690 2.73919 38 ft 15 kts 238°
2026-05-06 15:48 39.54630 2.73794 38 ft 17 kts 238°
2026-05-06 15:48 39.54565 2.73655 38 ft 19 kts 238°
2026-05-06 15:48 39.54493 2.73502 38 ft 21 kts 238°
2026-05-06 15:48 39.54414 2.73335 38 ft 23 kts 238°
2026-05-06 15:49 39.54328 2.73153 38 ft 25 kts 238°
2026-05-06 15:49 39.54250 2.72987 38 ft 14 kts 238°
2026-05-06 15:49 39.54204 2.72908 38 ft 7 kts 208°
2026-05-06 15:49 39.54170 2.72920 37 ft 2 kts 137°
2026-05-06 15:50 39.54166 2.72927 38 ft 2 kts 132°
2026-05-06 15:50 39.54153 2.72960 38 ft 6 kts 106°
2026-05-06 15:50 39.54151 2.72993 38 ft 4 kts 92°
2026-05-06 15:50 39.54153 2.73059 38 ft 10 kts 87°
2026-05-06 15:51 39.54155 2.73169 38 ft 13 kts 89°
2026-05-06 15:51 39.54151 2.73224 38 ft 4 kts 66°
2026-05-06 15:51 39.54156 2.73234 38 ft 0 kts 59°
2026-05-06 15:52 39.54201 2.73331 37 ft 40 kts 58°
2026-05-06 15:52 39.54469 2.73889 38 ft 103 kts 58°
2026-05-06 15:53 39.54924 2.74856 39 ft 150 kts 58°
2026-05-06 15:53 39.55514 2.76069 466 ft 153 kts 56°
2026-05-06 15:53 39.56054 2.77209 1186 ft 148 kts 59°
2026-05-06 15:53 39.56602 2.78423 1505 ft 166 kts 60°
2026-05-06 15:54 39.57217 2.79784 1811 ft 184 kts 60°
2026-05-06 15:54 39.57902 2.81307 2070 ft 207 kts 60°
2026-05-06 15:54 39.58653 2.82972 2585 ft 217 kts 60°
2026-05-06 15:54 39.59421 2.84670 3334 ft 220 kts 59°
2026-05-06 15:55 39.60206 2.86394 4086 ft 224 kts 59°
2026-05-06 15:55 39.61008 2.88153 4816 ft 228 kts 59°
2026-05-06 15:55 39.61822 2.89938 5523 ft 232 kts 59°
2026-05-06 15:55 39.62653 2.91783 6083 ft 247 kts 59°
2026-05-06 15:56 39.63540 2.93811 6443 ft 270 kts 60°
2026-05-06 15:56 39.64481 2.95989 7009 ft 282 kts 60°
2026-05-06 15:56 39.65447 2.98232 7761 ft 287 kts 60°
2026-05-06 15:56 39.66429 3.00517 8541 ft 292 kts 60°
2026-05-06 15:57 39.67423 3.02828 9304 ft 296 kts 60°
2026-05-06 15:57 39.68438 3.05177 10056 ft 301 kts 59°
2026-05-06 15:57 39.69128 3.06772 10323 ft 312 kts 60°
2026-05-06 15:57 39.70231 3.09320 10513 ft 335 kts 60°
2026-05-06 15:58 39.71404 3.12033 10819 ft 351 kts 60°
2026-05-06 15:58 39.72608 3.14823 11382 ft 358 kts 60°
2026-05-06 15:58 39.73832 3.17664 12001 ft 363 kts 60°
2026-05-06 15:58 39.75076 3.20553 12621 ft 368 kts 60°
2026-05-06 15:59 39.76334 3.23478 13245 ft 374 kts 60°
2026-05-06 15:59 39.77693 3.26386 13793 ft 380 kts 53°
2026-05-06 15:59 39.79388 3.29037 14329 ft 384 kts 47°
2026-05-06 15:59 39.81150 3.31667 14876 ft 388 kts 47°
2026-05-06 16:00 39.82925 3.34320 15418 ft 392 kts 47°
2026-05-06 16:00 39.84721 3.37011 15949 ft 396 kts 47°
2026-05-06 16:00 39.86534 3.39733 16486 ft 400 kts 47°
2026-05-06 16:00 39.88366 3.42486 17024 ft 404 kts 47°
2026-05-06 16:01 39.90213 3.45269 17579 ft 408 kts 47°
2026-05-06 16:01 39.92080 3.48080 18134 ft 412 kts 47°
2026-05-06 16:01 39.93964 3.50920 18631 ft 416 kts 47°
2026-05-06 16:01 39.95866 3.53792 19126 ft 420 kts 47°
2026-05-06 16:02 39.97781 3.56689 19649 ft 424 kts 47°
2026-05-06 16:02 39.99719 3.59623 20130 ft 429 kts 47°
2026-05-06 16:02 40.01652 3.62545 20615 ft 433 kts 47°
2026-05-06 16:02 40.03628 3.65537 21096 ft 437 kts 47°
2026-05-06 16:03 40.05617 3.68562 21567 ft 441 kts 48°
2026-05-06 16:03 40.07621 3.71617 22035 ft 445 kts 48°
2026-05-06 16:03 40.09643 3.74697 22491 ft 448 kts 48°
2026-05-06 16:03 40.11683 3.77801 22947 ft 452 kts 48°
2026-05-06 16:04 40.13742 3.80929 23396 ft 456 kts 48°
2026-05-06 16:04 40.15812 3.84075 23767 ft 459 kts 48°
2026-05-06 16:04 40.17905 3.87259 24139 ft 462 kts 48°
2026-05-06 16:04 40.20001 3.90452 24510 ft 465 kts 48°
2026-05-06 16:05 40.22114 3.93677 24857 ft 468 kts 48°
2026-05-06 16:05 40.24237 3.96930 25210 ft 471 kts 48°
2026-05-06 16:05 40.26369 4.00204 25557 ft 474 kts 48°
2026-05-06 16:05 40.28513 4.03499 25906 ft 477 kts 48°
2026-05-06 16:06 40.30671 4.06812 26233 ft 479 kts 48°
2026-05-06 16:06 40.32845 4.10142 26564 ft 482 kts 48°
2026-05-06 16:06 40.35028 4.13495 26895 ft 485 kts 48°
2026-05-06 16:06 40.37218 4.16872 27225 ft 487 kts 48°
2026-05-06 16:07 40.39391 4.20225 27527 ft 490 kts 48°
2026-05-06 16:07 40.41603 4.23642 27869 ft 493 kts 48°
2026-05-06 16:07 40.43828 4.27084 28190 ft 496 kts 49°
2026-05-06 16:07 40.46141 4.30455 28491 ft 498 kts 42°
2026-05-06 16:08 40.48783 4.33384 28805 ft 497 kts 32°
2026-05-06 16:08 40.51723 4.35751 29102 ft 495 kts 22°
2026-05-06 16:08 40.54881 4.37496 29469 ft 490 kts 13°
2026-05-06 16:08 40.58157 4.38601 29923 ft 483 kts
2026-05-06 16:09 40.61462 4.39373 30310 ft 482 kts
2026-05-06 16:09 40.64763 4.40154 30707 ft 482 kts
2026-05-06 16:09 40.68056 4.40944 31089 ft 481 kts
2026-05-06 16:09 40.71346 4.41741 31487 ft 480 kts
2026-05-06 16:10 40.74631 4.42539 31884 ft 480 kts
2026-05-06 16:10 40.77910 4.43335 32277 ft 479 kts
2026-05-06 16:10 40.81186 4.44125 32685 ft 478 kts
2026-05-06 16:10 40.84456 4.44913 33105 ft 478 kts
2026-05-06 16:11 40.87726 4.45700 33477 ft 477 kts
2026-05-06 16:11 40.90993 4.46488 33876 ft 477 kts
2026-05-06 16:11 40.94255 4.47274 34222 ft 476 kts
2026-05-06 16:11 40.97513 4.48061 34545 ft 476 kts
2026-05-06 16:12 41.00766 4.48849 34855 ft 475 kts
2026-05-06 16:12 41.04016 4.49639 35150 ft 475 kts
2026-05-06 16:12 41.07263 4.50430 35468 ft 474 kts
2026-05-06 16:12 41.10510 4.51223 35744 ft 474 kts
2026-05-06 16:13 41.13758 4.52014 35923 ft 475 kts
2026-05-06 16:13 41.17025 4.52806 35959 ft 480 kts
2026-05-06 16:13 41.23642 4.54408 35955 ft 485 kts
2026-05-06 16:14 41.30242 4.56026 35952 ft 486 kts
2026-05-06 16:14 41.36893 4.57663 35945 ft 486 kts
2026-05-06 16:15 41.43556 4.59302 35964 ft 487 kts
2026-05-06 16:15 41.50224 4.60943 35988 ft 488 kts
2026-05-06 16:16 41.56892 4.62590 35977 ft 488 kts
2026-05-06 16:16 41.63573 4.64246 35966 ft 488 kts
2026-05-06 16:17 41.70254 4.65942 35995 ft 491 kts
2026-05-06 16:17 41.76664 4.69331 35977 ft 502 kts 27°
2026-05-06 16:18 41.82665 4.74166 35963 ft 503 kts 27°
2026-05-06 16:18 41.88678 4.79000 35956 ft 504 kts 27°
2026-05-06 16:19 41.94698 4.83837 35970 ft 505 kts 27°
2026-05-06 16:19 42.00676 4.88673 35964 ft 505 kts 27°
2026-05-06 16:20 42.06729 4.93578 35958 ft 505 kts 27°
2026-05-06 16:20 42.12751 4.98466 35963 ft 506 kts 28°
2026-05-06 16:21 42.18735 5.03341 35955 ft 506 kts 28°
2026-05-06 16:21 42.24763 5.08259 35954 ft 506 kts 28°
2026-05-06 16:22 42.30797 5.13177 35972 ft 507 kts 28°
2026-05-06 16:22 42.36826 5.18109 35960 ft 506 kts 28°
2026-05-06 16:23 42.42848 5.23060 35955 ft 506 kts 28°
2026-05-06 16:23 42.48866 5.28020 35953 ft 506 kts 28°
2026-05-06 16:24 42.54875 5.32974 35972 ft 506 kts 28°
2026-05-06 16:24 42.60885 5.37941 35932 ft 506 kts 28°
2026-05-06 16:25 42.66897 5.42914 35938 ft 506 kts 28°
2026-05-06 16:25 42.72907 5.47903 35941 ft 506 kts 28°
2026-05-06 16:26 42.78913 5.52914 35938 ft 506 kts 28°
2026-05-06 16:26 42.84919 5.57932 35940 ft 506 kts 28°
2026-05-06 16:27 42.90925 5.62954 35968 ft 506 kts 28°
2026-05-06 16:27 42.96919 5.67985 35956 ft 505 kts 28°
2026-05-06 16:28 43.02908 5.73005 35923 ft 505 kts 28°
2026-05-06 16:28 43.08888 5.78030 35950 ft 505 kts 28°
2026-05-06 16:29 43.14832 5.83061 35941 ft 505 kts 29°
2026-05-06 16:29 43.20807 5.88124 35936 ft 505 kts 28°
2026-05-06 16:30 43.25810 5.92354 35921 ft 504 kts 28°
2026-05-06 16:30 43.32746 5.98251 35935 ft 505 kts 29°
2026-05-06 16:31 43.38925 6.02703 35915 ft 498 kts 15°
2026-05-06 16:31 43.45596 6.04675 35909 ft 485 kts 358°
2026-05-06 16:32 43.52333 6.05316 35920 ft 485 kts 358°
2026-05-06 16:32 43.59074 6.05995 35911 ft 486 kts 359°
2026-05-06 16:33 43.65819 6.06693 35900 ft 486 kts 359°
2026-05-06 16:34 43.75928 6.08045 35905 ft 492 kts
2026-05-06 16:34 43.82385 6.11400 35869 ft 500 kts 23°
2026-05-06 16:35 43.88631 6.15675 35893 ft 501 kts 23°
2026-05-06 16:35 43.94897 6.19938 35893 ft 502 kts 23°
2026-05-06 16:36 44.01170 6.24211 35890 ft 502 kts 23°
2026-05-06 16:36 44.07426 6.28512 35927 ft 502 kts 23°
2026-05-06 16:37 44.13692 6.32836 35917 ft 502 kts 24°
2026-05-06 16:37 44.19947 6.37146 35908 ft 501 kts 23°
2026-05-06 16:38 44.26206 6.41452 35917 ft 501 kts 23°
2026-05-06 16:38 44.32447 6.45775 35925 ft 501 kts 24°
2026-05-06 16:39 44.38692 6.50114 35896 ft 501 kts 23°
2026-05-06 16:39 44.44909 6.54425 35931 ft 502 kts 24°
2026-05-06 16:40 44.51156 6.58782 35926 ft 501 kts 24°
2026-05-06 16:40 44.57394 6.63158 35920 ft 501 kts 24°
2026-05-06 16:41 44.63623 6.67523 35918 ft 500 kts 24°
2026-05-06 16:41 44.69852 6.71885 35893 ft 500 kts 24°
2026-05-06 16:42 44.76095 6.76185 35891 ft 498 kts 19°
2026-05-06 16:42 44.82737 6.78519 35901 ft 488 kts
2026-05-06 16:43 44.89448 6.78442 35896 ft 482 kts 352°
2026-05-06 16:43 44.96144 6.77991 35892 ft 482 kts 352°
2026-05-06 16:44 45.02842 6.77549 35901 ft 482 kts 352°
2026-05-06 16:44 45.09543 6.77088 35899 ft 482 kts 352°
2026-05-06 16:45 45.16244 6.76638 35920 ft 483 kts 352°
2026-05-06 16:45 45.22950 6.76201 35937 ft 482 kts 353°
2026-05-06 16:46 45.29653 6.75753 35939 ft 482 kts 353°
2026-05-06 16:46 45.36354 6.75304 35943 ft 482 kts 353°
2026-05-06 16:47 45.41928 6.74932 35953 ft 483 kts 353°
2026-05-06 16:47 45.48630 6.74478 35946 ft 482 kts 353°
2026-05-06 16:48 45.55344 6.74019 35938 ft 482 kts 353°
2026-05-06 16:48 45.62051 6.73563 35950 ft 483 kts 353°
2026-05-06 16:49 45.68756 6.73091 35956 ft 483 kts 353°
2026-05-06 16:49 45.75474 6.72632 35953 ft 483 kts 353°
2026-05-06 16:50 45.82197 6.72177 35966 ft 483 kts 353°
2026-05-06 16:50 45.88919 6.71719 35960 ft 483 kts 353°
2026-05-06 16:51 45.95591 6.71273 35964 ft 483 kts 353°
2026-05-06 16:51 46.02296 6.70815 35964 ft 482 kts 354°
2026-05-06 16:52 46.08988 6.70347 35961 ft 481 kts 355°
2026-05-06 16:52 46.15666 6.71377 35952 ft 487 kts 13°
2026-05-06 16:53 46.22172 6.74150 35953 ft 487 kts 14°
2026-05-06 16:53 46.28675 6.76893 35944 ft 487 kts 14°
2026-05-06 16:54 46.35193 6.79643 35935 ft 487 kts 14°
2026-05-06 16:54 46.41701 6.82407 35937 ft 487 kts 14°
2026-05-06 16:55 46.48209 6.85186 35934 ft 487 kts 15°
2026-05-06 16:55 46.54458 6.89005 35891 ft 491 kts 32°
2026-05-06 16:56 46.59649 6.95398 35899 ft 491 kts 51°
2026-05-06 16:56 46.63951 7.03109 35898 ft 491 kts 52°
2026-05-06 16:57 46.68226 7.10801 35902 ft 492 kts 52°
2026-05-06 16:57 46.72524 7.18572 35905 ft 493 kts 52°
2026-05-06 16:58 46.76802 7.26337 35760 ft 486 kts 53°
2026-05-06 16:58 46.78912 7.30170 35903 ft 484 kts 53°
2026-05-06 16:58 46.81020 7.34009 35912 ft 485 kts 53°
2026-05-06 16:59 46.85227 7.41690 35896 ft 484 kts 53°
2026-05-06 16:59 46.89413 7.49371 35903 ft 483 kts 53°
2026-05-06 17:00 46.93578 7.57061 35924 ft 482 kts 53°
2026-05-06 17:00 46.97735 7.64737 35927 ft 480 kts 53°
2026-05-06 17:01 47.01888 7.72401 35935 ft 480 kts 53°
2026-05-06 17:01 47.06022 7.80069 35929 ft 479 kts 53°
2026-05-06 17:02 47.10144 7.87744 35926 ft 479 kts 53°
2026-05-06 17:02 47.14155 7.95511 35935 ft 476 kts 60°
2026-05-06 17:03 47.17670 8.03749 35940 ft 475 kts 60°
2026-05-06 17:03 47.21179 8.11972 35934 ft 475 kts 60°
2026-05-06 17:04 47.24678 8.20200 35933 ft 474 kts 60°
2026-05-06 17:04 47.28185 8.28425 35924 ft 475 kts 57°
2026-05-06 17:05 47.32691 8.35557 35905 ft 479 kts 39°
2026-05-06 17:05 47.38230 8.41019 35900 ft 479 kts 34°
2026-05-06 17:06 47.43806 8.46410 35894 ft 479 kts 34°
2026-05-06 17:06 47.49380 8.51839 35894 ft 480 kts 34°
2026-05-06 17:07 47.54909 8.57237 35899 ft 480 kts 34°
2026-05-06 17:07 47.60488 8.62672 35896 ft 480 kts 34°
2026-05-06 17:08 47.66068 8.68118 35899 ft 480 kts 34°
2026-05-06 17:08 47.71646 8.73587 35900 ft 480 kts 35°
2026-05-06 17:09 47.77217 8.79077 35902 ft 481 kts 34°
2026-05-06 17:09 47.82789 8.84571 35891 ft 481 kts 34°
2026-05-06 17:10 47.88370 8.90079 35893 ft 481 kts 35°
2026-05-06 17:10 47.93947 8.95598 35871 ft 481 kts 35°
2026-05-06 17:11 47.99517 9.01134 35876 ft 481 kts 35°
2026-05-06 17:11 48.05086 9.06685 35876 ft 481 kts 35°
2026-05-06 17:12 48.10659 9.12243 35884 ft 482 kts 34°
2026-05-06 17:12 48.16509 9.17104 35871 ft 482 kts 20°
2026-05-06 17:13 48.23020 9.19344 35865 ft 481 kts
2026-05-06 17:13 48.29627 9.20439 35858 ft 481 kts
2026-05-06 17:14 48.36332 9.21570 35870 ft 481 kts
2026-05-06 17:14 48.42980 9.22707 35863 ft 481 kts
2026-05-06 17:15 48.49630 9.23840 35866 ft 481 kts
2026-05-06 17:15 48.56245 9.24959 35848 ft 481 kts
2026-05-06 17:16 48.62895 9.26089 35848 ft 481 kts
2026-05-06 17:16 48.69551 9.27132 35847 ft 481 kts
2026-05-06 17:17 48.76204 9.28117 35856 ft 481 kts
2026-05-06 17:17 48.82869 9.29114 35851 ft 480 kts
2026-05-06 17:18 48.89518 9.30135 35854 ft 480 kts
2026-05-06 17:18 48.96173 9.31163 35856 ft 480 kts
2026-05-06 17:19 49.02825 9.32188 35851 ft 480 kts
2026-05-06 17:19 49.09475 9.33219 35844 ft 481 kts
2026-05-06 17:20 49.16120 9.34259 35844 ft 480 kts
2026-05-06 17:20 49.22771 9.35303 35837 ft 480 kts